This is the latest recevied weather packets stored in our database for station/object VE4GLS. If no packets are shown the sender has not sent any weather packets the latest 10 day(s).
| Time | Temp. | Humidity | Pressure | Rain* | Wind** | Luminosity | Snow |
|---|---|---|---|---|---|---|---|
| 1777762055 | 18.89° C | 42% | 1003.8 hPa | 0 mm | - | - | - |
| 1777761794 | 18.89° C | 42% | 1003.8 hPa | 0 mm | - | - | - |
| 1777761194 | 19.44° C | 41% | 1003.9 hPa | 0 mm | - | - | - |
| 1777761154 | 19.44° C | 41% | 1003.9 hPa | 0 mm | - | - | - |
| 1777760594 | 19.44° C | 40% | 1003.9 hPa | 0 mm | - | - | - |
| 1777760256 | 20° C | 39% | 1003.9 hPa | 0 mm | - | - | - |
| 1777759994 | 20.56° C | 39% | 1003.9 hPa | 0 mm | - | - | - |
| 1777759395 | 20° C | 40% | 1003.9 hPa | 0 mm | - | - | - |
| 1777759354 | 20° C | 40% | 1003.9 hPa | 0 mm | - | - | - |
| 1777758793 | 20° C | 39% | 1004 hPa | 0 mm | - | - | - |
| 1777758455 | 20° C | 40% | 1004 hPa | 0 mm | - | - | - |
| 1777758193 | 20° C | 41% | 1004.1 hPa | 0 mm | - | - | - |
| 1777757593 | 20.56° C | 40% | 1004.2 hPa | 0 mm | - | - | - |
| 1777757555 | 20.56° C | 40% | 1004.2 hPa | 0 mm | - | - | - |
| 1777756995 | 20° C | 41% | 1004.1 hPa | 0 mm | - | - | - |
| 1777756654 | 19.44° C | 42% | 1004.2 hPa | 0 mm | - | - | - |
| 1777756394 | 19.44° C | 43% | 1004.2 hPa | 0 mm | - | - | - |
| 1777755794 | 18.89° C | 44% | 1004.3 hPa | 0 mm | - | - | - |
| 1777755754 | 18.89° C | 44% | 1004.3 hPa | 0 mm | - | - | - |
| 1777755194 | 19.44° C | 42% | 1004.4 hPa | 0 mm | - | - | - |
| 1777754856 | 19.44° C | 43% | 1004.5 hPa | 0 mm | - | - | - |
| 1777754594 | 18.89° C | 44% | 1004.6 hPa | 0 mm | - | - | - |
| 1777753994 | 18.33° C | 47% | 1004.6 hPa | 0 mm | - | - | - |
| 1777753955 | 18.33° C | 47% | 1004.7 hPa | 0 mm | - | - | - |
| 1777753393 | 17.22° C | 49% | 1004.7 hPa | 0 mm | - | - | - |
* Rain latest hour (hover to see other rain measurements)
** Current wind speed in m/s (hover to see current wind gust speed)